#timestamp,LO_Frequency,Hit,Temp,Hum 
1487437215.3,286046983.8,N,0.0,0.0
1487437235.2,286046984.1,N,0.0,0.0
1487437255.9,286046982.5,N,0.0,0.0
1487437275.7,286046984.2,N,0.0,0.0
1487437295.5,286046984.2,N,0.0,0.0
1487437315.4,286046987.9,N,0.0,0.0
1487437335.2,286046984.4,N,0.0,0.0
1487437355.0,286046991.3,N,0.0,0.0
1487437356.0,286046991.3,N,0.0,0.0
1487437375.8,286046995.5,N,0.0,0.0
1487437395.6,286046993.6,N,0.0,0.0
1487437415.4,286046993.4,N,0.0,0.0
1487437435.3,286046996.9,N,0.0,0.0
1487437455.1,286046994.9,N,0.0,0.0
1487437475.8,286046994.7,N,0.0,0.0
1487437495.7,286046990.8,N,0.0,0.0
1487437515.5,286046986.9,N,0.0,0.0
1487437535.3,286046986.0,N,0.0,0.0
1487437555.2,286046982.1,N,0.0,0.0
1487437575.9,286046982.0,N,0.0,0.0
1487437595.7,286046978.5,N,0.0,0.0
1487437615.6,286046980.1,N,0.0,0.0
1487437635.4,286046981.9,N,0.0,0.0
1487437655.2,286046984.0,N,0.0,0.0
1487437675.1,286046988.4,N,0.0,0.0
1487437676.0,286046988.4,N,0.0,0.0
1487437695.8,286046989.5,N,0.0,0.0
1487437715.6,286046986.8,N,0.0,0.0
1487437735.5,286046986.8,N,0.0,0.0
1487437755.3,286046991.3,N,0.0,0.0
1487437775.1,286046995.6,N,0.0,0.0
1487437795.9,286047000.8,N,0.0,0.0
1487437815.7,286047005.4,N,0.0,0.0
1487437835.5,286047004.1,N,0.0,0.0
1487437855.4,286047004.7,N,0.0,0.0
1487437875.2,286047006.4,N,0.0,0.0
1487437895.0,286047004.3,N,0.0,0.0
1487437895.9,286047004.3,N,0.0,0.0
1487437915.8,286047003.1,N,0.0,0.0
1487437935.6,286047001.8,N,0.0,0.0
1487437955.4,286046998.8,N,0.0,0.0
1487437975.2,286046996.2,N,0.0,0.0
1487437995.1,286046989.7,N,0.0,0.0
1487437996.0,286046989.7,N,0.0,0.0
1487438015.8,286046985.4,N,0.0,0.0
1487438035.7,286046986.0,N,0.0,0.0
1487438055.5,286046982.7,N,0.0,0.0
1487438075.3,286046989.5,N,0.0,0.0
1487438095.1,286046993.9,N,0.0,0.0
1487438115.9,286047000.8,N,0.0,0.0
1487438135.7,286046996.5,N,0.0,0.0
1487438155.5,286047000.9,N,0.0,0.0
1487438175.4,286047004.3,N,0.0,0.0
1487438195.2,286047002.4,N,0.0,0.0
1487438215.0,286046999.8,N,0.0,0.0
1487438215.9,286046999.8,N,0.0,0.0
1487438235.8,286046999.7,N,0.0,0.0
1487438255.6,286047007.0,N,0.0,0.0
1487438275.4,286047007.9,N,0.0,0.0
1487438295.3,286047017.1,N,0.0,0.0
1487438315.1,286047020.3,N,0.0,0.0
1487438316.0,286047020.3,N,0.0,0.0
1487438335.8,286047022.0,N,0.0,0.0
1487438355.7,286047020.7,N,0.0,0.0
1487438375.5,286047024.7,N,0.0,0.0
1487438395.3,286047023.3,N,0.0,0.0
1487438415.2,286047024.4,N,0.0,0.0
1487438435.9,286047028.1,N,0.0,0.0
1487438455.7,286047027.6,N,0.0,0.0
1487438475.6,286047030.0,N,0.0,0.0
1487438495.4,286047024.9,N,0.0,0.0
1487438515.2,286047017.9,N,0.0,0.0
1487438535.0,286047013.6,N,0.0,0.0
1487438536.0,286047013.6,N,0.0,0.0
1487438555.8,286047004.5,N,0.0,0.0
1487438575.6,286047003.8,N,0.0,0.0
1487438595.4,286047005.1,N,0.0,0.0
1487438615.3,286047010.0,N,0.0,0.0
1487438635.1,286047018.2,N,0.0,0.0
1487438655.8,286047023.1,N,0.0,0.0
1487438675.7,286047025.5,N,0.0,0.0
1487438695.5,286047028.5,N,0.0,0.0
1487438715.3,286047031.0,N,0.0,0.0
1487438735.2,286047029.2,N,0.0,0.0
1487438755.0,286047026.2,N,0.0,0.0
1487438755.9,286047026.2,N,0.0,0.0
1487438775.7,286047020.6,N,0.0,0.0
1487438795.6,286047016.2,N,0.0,0.0
1487438815.4,286047009.5,N,0.0,0.0
1487438835.2,286047013.6,N,0.0,0.0
1487438855.1,286047016.5,N,0.0,0.0
1487438856.0,286047016.5,N,0.0,0.0
1487438875.8,286047020.4,N,0.0,0.0
1487438895.6,286047023.9,N,0.0,0.0
1487438915.5,286047027.0,N,0.0,0.0
1487438935.3,286047031.3,N,0.0,0.0
1487438955.1,286047031.8,N,0.0,0.0
1487438975.9,286047030.5,N,0.0,0.0
1487438995.7,286047026.3,N,0.0,0.0
1487439015.5,286047022.5,N,0.0,0.0
1487439035.4,286047022.7,N,0.0,0.0
1487439055.2,286047024.4,N,0.0,0.0
1487439075.0,286047027.1,N,0.0,0.0
1487439075.9,286047027.1,N,0.0,0.0
1487439095.8,286047031.3,N,0.0,0.0
1487439115.6,286047036.0,N,0.0,0.0
1487439135.4,286047039.5,N,0.0,0.0
1487439155.3,286047047.8,N,0.0,0.0
1487439175.1,286047048.5,N,0.0,0.0
1487439176.0,286047048.5,N,0.0,0.0
1487439195.8,286047043.3,N,0.0,0.0
1487439215.7,286047040.2,N,0.0,0.0
1487439235.5,286047036.8,N,0.0,0.0
1487439255.3,286047037.1,N,0.0,0.0
1487439275.2,286047039.1,N,0.0,0.0
1487439295.9,286047034.9,N,0.0,0.0
1487439315.7,286047034.4,N,0.0,0.0
1487439335.6,286047034.8,N,0.0,0.0
1487439355.4,286047034.0,N,0.0,0.0
1487439375.2,286047037.6,N,0.0,0.0
1487439395.0,286047039.0,N,0.0,0.0
1487439396.0,286047039.0,N,0.0,0.0
1487439415.8,286047043.7,N,0.0,0.0
1487439435.6,286047045.0,N,0.0,0.0
1487439455.4,286047041.5,N,0.0,0.0
1487439475.3,286047039.6,N,0.0,0.0
1487439495.1,286047040.5,N,0.0,0.0
1487439515.8,286047041.6,N,0.0,0.0
1487439535.7,286047039.9,N,0.0,0.0
1487439555.5,286047038.1,N,0.0,0.0
1487439575.3,286047038.7,N,0.0,0.0
1487439595.2,286047040.1,N,0.0,0.0
1487439615.9,286047043.0,N,0.0,0.0
1487439635.7,286047041.3,N,0.0,0.0
1487439655.6,286047041.5,N,0.0,0.0
1487439675.4,286047038.6,N,0.0,0.0
1487439695.2,286047035.0,N,0.0,0.0
1487439715.1,286047035.2,N,0.0,0.0
1487439716.0,286047035.2,N,0.0,0.0
1487439735.8,286047035.7,N,0.0,0.0
1487439755.6,286047037.5,N,0.0,0.0
1487439775.5,286047035.4,N,0.0,0.0
1487439795.3,286047035.3,N,0.0,0.0
1487439815.1,286047037.7,N,0.0,0.0
1487439835.9,286047035.3,N,0.0,0.0
1487439855.7,286047036.0,N,0.0,0.0
1487439875.5,286047038.7,N,0.0,0.0
1487439895.4,286047047.8,N,0.0,0.0
1487439915.2,286047049.9,N,0.0,0.0
1487439935.0,286047048.7,N,0.0,0.0
1487439935.9,286047048.7,N,0.0,0.0
1487439955.8,286047041.4,N,0.0,0.0
1487439975.6,286047036.5,N,0.0,0.0
1487439995.4,286047035.7,N,0.0,0.0
1487440015.3,286047039.5,N,0.0,0.0
1487440035.1,286047034.3,N,0.0,0.0
1487440036.0,286047034.3,N,0.0,0.0
1487440055.8,286047028.7,N,0.0,0.0
1487440075.7,286047031.0,N,0.0,0.0
1487440095.5,286047031.1,N,0.0,0.0
1487440115.3,286047026.3,N,0.0,0.0
1487440135.1,286047025.8,N,0.0,0.0
1487440155.9,286047026.2,N,0.0,0.0
1487440175.7,286047025.6,N,0.0,0.0
1487440195.5,286047025.8,N,0.0,0.0
1487440215.4,286047028.9,N,0.0,0.0
1487440235.2,286047029.8,N,0.0,0.0
1487440255.0,286047028.7,N,0.0,0.0
1487440255.9,286047028.7,N,0.0,0.0
1487440275.8,286047034.8,N,0.0,0.0
1487440295.6,286047033.9,N,0.0,0.0
1487440315.4,286047035.8,N,0.0,0.0
1487440335.3,286047034.3,N,0.0,0.0
1487440355.1,286047033.7,N,0.0,0.0
1487440375.8,286047031.7,N,0.0,0.0
1487440395.7,286047033.0,N,0.0,0.0
1487440415.5,286047031.1,N,0.0,0.0
1487440435.3,286047044.5,N,0.0,0.0
1487440455.2,286047040.3,N,0.0,0.0
1487440475.9,286047039.2,N,0.0,0.0
1487440495.7,286047034.1,N,0.0,0.0
1487440515.6,286047034.1,N,0.0,0.0
1487440535.4,286047030.8,N,0.0,0.0
1487440555.2,286047031.2,N,0.0,0.0
1487440575.1,286047026.5,N,0.0,0.0
1487440576.0,286047026.5,N,0.0,0.0
1487440595.8,286047024.6,N,0.0,0.0
1487440615.6,286047025.6,N,0.0,0.0
1487440635.5,286047036.3,N,0.0,0.0
1487440655.3,286047032.7,N,0.0,0.0
1487440675.1,286047028.7,N,0.0,0.0
1487440695.8,286047033.3,N,0.0,0.0
1487440715.7,286047042.4,Y,0.0,0.0
1487440735.5,286047014.5,N,0.0,0.0
1487440755.4,286047021.7,N,0.0,0.0
1487440775.2,286047022.7,N,0.0,0.0
1487440795.0,286047025.0,N,0.0,0.0
1487440795.9,286047025.0,N,0.0,0.0
